Wetterdaten: Montag, 10.08.2015
Datum Zeit Temp. A. Feuchte A. Luftdruck Regen Wind Richtung Richtung Sonnenschein ET UV Solar Taupunkt Windchill Windben Empfang
10.08.2015 00:01 23,2 C 54 % 1013,5 hPa 0,0 l/m 0,0 km/h (0 Bft) NO 34 0 min 0,000 mm 0,0 UV-I 0 W/m 13,4 C 23,2 C 0,0 km/h (0 Bft) 0,00 %
10.08.2015 00:06 23,1 C 54 % 1013,6 hPa 0,0 l/m 2,2 km/h (1 Bft) O 86 0 min 0,000 mm 0,0 UV-I 0 W/m 13,3 C 23,1 C 4,0 km/h (1 Bft) 0,00 %
10.08.2015 00:11 23,1 C 54 % 1013,6 hPa 0,0 l/m 0,7 km/h (0 Bft) N-NO 18 0 min 0,000 mm 0,0 UV-I 0 W/m 13,3 C 23,1 C 4,0 km/h (1 Bft) 0,00 %
10.08.2015 00:16 23,0 C 54 % 1013,6 hPa 0,0 l/m 0,7 km/h (0 Bft) O 81 0 min 0,000 mm 0,0 UV-I 0 W/m 13,2 C 23,0 C 4,0 km/h (1 Bft) 0,00 %
10.08.2015 00:21 23,0 C 54 % 1013,6 hPa 0,0 l/m 1,4 km/h (1 Bft) O-SO 112 0 min 0,000 mm 0,0 UV-I 0 W/m 13,2 C 23,0 C 4,0 km/h (1 Bft) 0,00 %
10.08.2015 00:26 23,0 C 56 % 1013,8 hPa 0,0 l/m 0,4 km/h (0 Bft) NO 55 0 min 0,000 mm 0,0 UV-I 0 W/m 13,7 C 23,0 C 4,0 km/h (1 Bft) 0,00 %
10.08.2015 00:31 22,9 C 56 % 1013,6 hPa 0,0 l/m 0,0 km/h (0 Bft) NO 55 0 min 0,000 mm 0,0 UV-I 0 W/m 13,6 C 22,9 C 0,0 km/h (0 Bft) 0,00 %
10.08.2015 00:36 22,7 C 56 % 1013,9 hPa 0,0 l/m 4,0 km/h (1 Bft) O 96 0 min 0,000 mm 0,0 UV-I 0 W/m 13,5 C 22,7 C 7,9 km/h (2 Bft) 0,00 %
10.08.2015 00:41 22,6 C 56 % 1013,8 hPa 0,0 l/m 0,7 km/h (0 Bft) O-NO 77 0 min 0,000 mm 0,0 UV-I 0 W/m 13,4 C 22,6 C 4,0 km/h (1 Bft) 0,00 %
10.08.2015 00:46 22,6 C 56 % 1013,7 hPa 0,0 l/m 0,0 km/h (0 Bft) O 88 0 min 0,000 mm 0,0 UV-I 0 W/m 13,4 C 22,6 C 0,0 km/h (0 Bft) 0,00 %
10.08.2015 00:51 22,5 C 56 % 1013,9 hPa 0,0 l/m 1,8 km/h (1 Bft) O 96 0 min 0,000 mm 0,0 UV-I 0 W/m 13,3 C 22,5 C 4,0 km/h (1 Bft) 0,00 %
10.08.2015 00:56 22,4 C 56 % 1013,8 hPa 0,0 l/m 0,4 km/h (0 Bft) O-SO 112 0 min 0,000 mm 0,0 UV-I 0 W/m 13,2 C 22,4 C 4,0 km/h (1 Bft) 0,00 %
10.08.2015 01:01 22,3 C 56 % 1013,9 hPa 0,0 l/m 0,0 km/h (0 Bft) O-NO 74 0 min 0,000 mm 0,0 UV-I 0 W/m 13,1 C 22,3 C 0,0 km/h (0 Bft) 0,00 %
10.08.2015 01:06 22,2 C 56 % 1013,7 hPa 0,0 l/m 0,0 km/h (0 Bft) NO 47 0 min 0,000 mm 0,0 UV-I 0 W/m 13,0 C 22,2 C 0,0 km/h (0 Bft) 0,00 %
10.08.2015 01:11 22,1 C 56 % 1013,7 hPa 0,0 l/m 0,0 km/h (0 Bft) NO 48 0 min 0,000 mm 0,0 UV-I 0 W/m 12,9 C 22,1 C 0,0 km/h (0 Bft) 0,00 %
10.08.2015 01:16 22,0 C 58 % 1013,6 hPa 0,0 l/m 0,0 km/h (0 Bft) O-NO 77 0 min 0,000 mm 0,0 UV-I 0 W/m 13,3 C 22,0 C 0,0 km/h (0 Bft) 0,00 %
10.08.2015 01:21 21,8 C 58 % 1013,7 hPa 0,0 l/m 0,0 km/h (0 Bft) NO 52 0 min 0,000 mm 0,0 UV-I 0 W/m 13,2 C 21,8 C 0,0 km/h (0 Bft) 0,00 %
10.08.2015 01:26 21,6 C 58 % 1013,6 hPa 0,0 l/m 0,0 km/h (0 Bft) NO 46 0 min 0,000 mm 0,0 UV-I 0 W/m 13,0 C 21,6 C 0,0 km/h (0 Bft) 0,00 %
10.08.2015 01:31 21,3 C 59 % 1013,8 hPa 0,0 l/m 0,0 km/h (0 Bft) O-NO 66 0 min 0,000 mm 0,0 UV-I 0 W/m 13,0 C 21,3 C 0,0 km/h (0 Bft) 0,00 %
10.08.2015 01:36 21,0 C 60 % 1013,5 hPa 0,0 l/m 0,0 km/h (0 Bft) O-NO 57 0 min 0,000 mm 0,0 UV-I 0 W/m 12,9 C 21,0 C 0,0 km/h (0 Bft) 0,00 %
10.08.2015 01:41 20,8 C 60 % 1013,5 hPa 0,0 l/m 0,0 km/h (0 Bft) O-NO 65 0 min 0,000 mm 0,0 UV-I 0 W/m 12,7 C 20,8 C 0,0 km/h (0 Bft) 0,00 %
10.08.2015 01:46 20,8 C 59 % 1013,6 hPa 0,0 l/m 0,0 km/h (0 Bft) O 96 0 min 0,000 mm 0,0 UV-I 0 W/m 12,5 C 20,8 C 0,0 km/h (0 Bft) 0,00 %
10.08.2015 01:51 20,8 C 58 % 1013,6 hPa 0,0 l/m 0,0 km/h (0 Bft) O-NO 61 0 min 0,000 mm 0,0 UV-I 0 W/m 12,2 C 20,8 C 0,0 km/h (0 Bft) 0,00 %
10.08.2015 01:56 21,0 C 58 % 1013,5 hPa 0,0 l/m 0,0 km/h (0 Bft) O-NO 59 0 min 0,000 mm 0,0 UV-I 0 W/m 12,4 C 21,0 C 0,0 km/h (0 Bft) 0,00 %
10.08.2015 02:01 21,0 C 58 % 1013,6 hPa 0,0 l/m 0,0 km/h (0 Bft) NO 47 0 min 0,000 mm 0,0 UV-I 0 W/m 12,4 C 21,0 C 0,0 km/h (0 Bft) 0,00 %
10.08.2015 02:06 21,0 C 58 % 1013,5 hPa 0,0 l/m 0,0 km/h (0 Bft) NO 45 0 min 0,000 mm 0,0 UV-I 0 W/m 12,4 C 21,0 C 0,0 km/h (0 Bft) 0,00 %
10.08.2015 02:11 20,9 C 59 % 1013,5 hPa 0,0 l/m 0,0 km/h (0 Bft) O-NO 67 0 min 0,000 mm 0,0 UV-I 0 W/m 12,6 C 20,9 C 0,0 km/h (0 Bft) 0,00 %
10.08.2015 02:16 20,8 C 59 % 1013,5 hPa 0,0 l/m 0,0 km/h (0 Bft) O-NO 58 0 min 0,000 mm 0,0 UV-I 0 W/m 12,5 C 20,8 C 0,0 km/h (0 Bft) 0,00 %
10.08.2015 02:21 20,6 C 59 % 1013,3 hPa 0,0 l/m 0,0 km/h (0 Bft) O 86 0 min 0,000 mm 0,0 UV-I 0 W/m 12,3 C 20,6 C 0,0 km/h (0 Bft) 0,00 %
10.08.2015 02:26 20,6 C 59 % 1013,3 hPa 0,0 l/m 0,0 km/h (0 Bft) NO 55 0 min 0,000 mm 0,0 UV-I 0 W/m 12,3 C 20,6 C 0,0 km/h (0 Bft) 0,00 %
10.08.2015 02:31 20,6 C 59 % 1013,4 hPa 0,0 l/m 0,0 km/h (0 Bft) NO 41 0 min 0,000 mm 0,0 UV-I 0 W/m 12,3 C 20,6 C 0,0 km/h (0 Bft) 0,00 %
10.08.2015 02:36 20,6 C 59 % 1013,6 hPa 0,0 l/m 0,0 km/h (0 Bft) O-NO 69 0 min 0,000 mm 0,0 UV-I 0 W/m 12,3 C 20,6 C 0,0 km/h (0 Bft) 0,00 %
10.08.2015 02:41 20,5 C 59 % 1013,5 hPa 0,0 l/m 0,0 km/h (0 Bft) NO 51 0 min 0,000 mm 0,0 UV-I 0 W/m 12,2 C 20,5 C 0,0 km/h (0 Bft) 0,00 %
10.08.2015 02:46 20,4 C 59 % 1013,5 hPa 0,0 l/m 1,4 km/h (1 Bft) O-SO 109 0 min 0,000 mm 0,0 UV-I 0 W/m 12,1 C 20,4 C 4,0 km/h (1 Bft) 0,00 %
10.08.2015 02:51 20,4 C 59 % 1013,4 hPa 0,0 l/m 0,0 km/h (0 Bft) O-NO 58 0 min 0,000 mm 0,0 UV-I 0 W/m 12,1 C 20,4 C 0,0 km/h (0 Bft) 0,00 %
10.08.2015 02:56 20,3 C 59 % 1013,6 hPa 0,0 l/m 0,0 km/h (0 Bft) O 88 0 min 0,000 mm 0,0 UV-I 0 W/m 12,0 C 20,3 C 0,0 km/h (0 Bft) 0,00 %
10.08.2015 03:01 20,3 C 59 % 1013,4 hPa 0,0 l/m 0,0 km/h (0 Bft) NO 51 0 min 0,000 mm 0,0 UV-I 0 W/m 12,0 C 20,3 C 0,0 km/h (0 Bft) 0,00 %
10.08.2015 03:06 20,2 C 59 % 1013,4 hPa 0,0 l/m 0,0 km/h (0 Bft) O-NO 68 0 min 0,000 mm 0,0 UV-I 0 W/m 11,9 C 20,2 C 0,0 km/h (0 Bft) 0,00 %
10.08.2015 03:11 20,0 C 60 % 1013,3 hPa 0,0 l/m 0,0 km/h (0 Bft) O-NO 72 0 min 0,000 mm 0,0 UV-I 0 W/m 12,0 C 20,0 C 0,0 km/h (0 Bft) 0,00 %
10.08.2015 03:16 19,8 C 61 % 1013,4 hPa 0,0 l/m 0,0 km/h (0 Bft) O-NO 60 0 min 0,000 mm 0,0 UV-I 0 W/m 12,1 C 19,8 C 0,0 km/h (0 Bft) 0,00 %
10.08.2015 03:21 19,7 C 61 % 1013,4 hPa 0,0 l/m 0,0 km/h (0 Bft) NO 49 0 min 0,000 mm 0,0 UV-I 0 W/m 12,0 C 19,7 C 0,0 km/h (0 Bft) 0,00 %
10.08.2015 03:26 19,6 C 61 % 1013,5 hPa 0,0 l/m 0,0 km/h (0 Bft) O-NO 67 0 min 0,000 mm 0,0 UV-I 0 W/m 11,9 C 19,6 C 0,0 km/h (0 Bft) 0,00 %
10.08.2015 03:31 19,5 C 62 % 1013,4 hPa 0,0 l/m 0,0 km/h (0 Bft) NO 45 0 min 0,000 mm 0,0 UV-I 0 W/m 12,0 C 19,5 C 0,0 km/h (0 Bft) 0,00 %
10.08.2015 03:36 19,4 C 63 % 1013,3 hPa 0,0 l/m 0,0 km/h (0 Bft) O 82 0 min 0,000 mm 0,0 UV-I 0 W/m 12,2 C 19,4 C 0,0 km/h (0 Bft) 0,00 %
10.08.2015 03:41 19,3 C 63 % 1013,3 hPa 0,0 l/m 0,0 km/h (0 Bft) O 81 0 min 0,000 mm 0,0 UV-I 0 W/m 12,1 C 19,3 C 0,0 km/h (0 Bft) 0,00 %
10.08.2015 03:46 19,2 C 62 % 1013,2 hPa 0,0 l/m 0,0 km/h (0 Bft) O-NO 57 0 min 0,000 mm 0,0 UV-I 0 W/m 11,7 C 19,2 C 0,0 km/h (0 Bft) 0,00 %
10.08.2015 03:51 19,1 C 63 % 1013,4 hPa 0,0 l/m 0,0 km/h (0 Bft) O-NO 58 0 min 0,000 mm 0,0 UV-I 0 W/m 11,9 C 19,1 C 0,0 km/h (0 Bft) 0,00 %
10.08.2015 03:56 19,0 C 64 % 1013,4 hPa 0,0 l/m 0,0 km/h (0 Bft) O-NO 62 0 min 0,000 mm 0,0 UV-I 0 W/m 12,0 C 19,0 C 0,0 km/h (0 Bft) 0,00 %
10.08.2015 04:01 18,9 C 64 % 1013,2 hPa 0,0 l/m 0,0 km/h (0 Bft) NO 50 0 min 0,000 mm 0,0 UV-I 0 W/m 11,9 C 18,9 C 0,0 km/h (0 Bft) 0,00 %
10.08.2015 04:06 18,7 C 68 % 1013,4 hPa 0,0 l/m 0,0 km/h (0 Bft) N 358 0 min 0,000 mm 0,0 UV-I 0 W/m 12,7 C 18,7 C 0,0 km/h (0 Bft) 0,00 %
10.08.2015 04:11 18,5 C 69 % 1013,7 hPa 0,0 l/m 0,0 km/h (0 Bft) N-NW 347 0 min 0,000 mm 0,0 UV-I 0 W/m 12,7 C 18,5 C 0,0 km/h (0 Bft) 0,00 %
10.08.2015 04:16 18,3 C 69 % 1013,5 hPa 0,0 l/m 0,0 km/h (0 Bft) NO 34 0 min 0,000 mm 0,0 UV-I 0 W/m 12,5 C 18,3 C 0,0 km/h (0 Bft) 0,00 %
10.08.2015 04:21 18,1 C 69 % 1013,5 hPa 0,0 l/m 0,0 km/h (0 Bft) NO 43 0 min 0,000 mm 0,0 UV-I 0 W/m 12,3 C 18,1 C 0,0 km/h (0 Bft) 0,00 %
10.08.2015 04:26 18,0 C 70 % 1013,7 hPa 0,0 l/m 0,0 km/h (0 Bft) NO 48 0 min 0,000 mm 0,0 UV-I 0 W/m 12,4 C 18,0 C 0,0 km/h (0 Bft) 0,00 %
10.08.2015 04:31 18,0 C 70 % 1013,7 hPa 0,0 l/m 0,0 km/h (0 Bft) NO 52 0 min 0,000 mm 0,0 UV-I 0 W/m 12,4 C 18,0 C 0,0 km/h (0 Bft) 0,00 %
10.08.2015 04:36 18,0 C 71 % 1013,6 hPa 0,0 l/m 0,0 km/h (0 Bft) NO 45 0 min 0,000 mm 0,0 UV-I 0 W/m 12,7 C 18,0 C 0,0 km/h (0 Bft) 0,00 %
10.08.2015 04:41 17,9 C 73 % 1013,6 hPa 0,0 l/m 0,0 km/h (0 Bft) NO 45 0 min 0,000 mm 0,0 UV-I 0 W/m 13,0 C 17,9 C 0,0 km/h (0 Bft) 0,00 %
10.08.2015 04:46 17,8 C 73 % 1013,6 hPa 0,0 l/m 0,0 km/h (0 Bft) NO 44 0 min 0,000 mm 0,0 UV-I 0 W/m 12,9 C 17,8 C 0,0 km/h (0 Bft) 0,00 %
10.08.2015 04:51 17,7 C 74 % 1013,6 hPa 0,0 l/m 0,0 km/h (0 Bft) NO 44 0 min 0,000 mm 0,0 UV-I 0 W/m 13,0 C 17,7 C 0,0 km/h (0 Bft) 0,00 %
10.08.2015 04:56 17,6 C 75 % 1013,8 hPa 0,0 l/m 0,0 km/h (0 Bft) NO 36 0 min 0,000 mm 0,0 UV-I 0 W/m 13,1 C 17,6 C 0,0 km/h (0 Bft) 0,00 %
10.08.2015 05:01 17,6 C 75 % 1013,8 hPa 0,0 l/m 0,0 km/h (0 Bft) NO 45 0 min 0,000 mm 0,0 UV-I 0 W/m 13,1 C 17,6 C 0,0 km/h (0 Bft) 0,00 %
10.08.2015 05:06 17,6 C 76 % 1013,7 hPa 0,0 l/m 0,0 km/h (0 Bft) N-NO 32 0 min 0,000 mm 0,0 UV-I 0 W/m 13,3 C 17,6 C 0,0 km/h (0 Bft) 0,00 %
10.08.2015 05:11 17,5 C 77 % 1013,8 hPa 0,0 l/m 0,0 km/h (0 Bft) N-NO 32 0 min 0,000 mm 0,0 UV-I 0 W/m 13,4 C 17,5 C 0,0 km/h (0 Bft) 0,00 %
10.08.2015 05:16 17,5 C 78 % 1013,8 hPa 0,0 l/m 0,0 km/h (0 Bft) NO 43 0 min 0,000 mm 0,0 UV-I 0 W/m 13,6 C 17,5 C 0,0 km/h (0 Bft) 0,00 %
10.08.2015 05:21 17,5 C 80 % 1013,9 hPa 0,0 l/m 0,0 km/h (0 Bft) N-NO 31 0 min 0,000 mm 0,0 UV-I 0 W/m 14,0 C 17,5 C 0,0 km/h (0 Bft) 0,00 %
10.08.2015 05:26 17,6 C 82 % 1013,9 hPa 0,0 l/m 0,0 km/h (0 Bft) N 355 0 min 0,000 mm 0,0 UV-I 0 W/m 14,5 C 17,6 C 0,0 km/h (0 Bft) 0,00 %
10.08.2015 05:31 17,8 C 81 % 1013,9 hPa 0,0 l/m 0,0 km/h (0 Bft) O-NO 76 0 min 0,000 mm 0,0 UV-I 0 W/m 14,5 C 17,8 C 0,0 km/h (0 Bft) 0,00 %
10.08.2015 05:36 17,9 C 81 % 1014,0 hPa 0,0 l/m 0,0 km/h (0 Bft) NO 38 0 min 0,000 mm 0,0 UV-I 0 W/m 14,6 C 17,9 C 0,0 km/h (0 Bft) 0,00 %
10.08.2015 05:41 17,9 C 82 % 1014,0 hPa 0,0 l/m 0,0 km/h (0 Bft) W-NW 284 0 min 0,000 mm 0,0 UV-I 0 W/m 14,8 C 17,9 C 0,0 km/h (0 Bft) 0,00 %
10.08.2015 05:46 17,9 C 82 % 1014,1 hPa 0,0 l/m 0,0 km/h (0 Bft) O-NO 66 0 min 0,000 mm 0,0 UV-I 0 W/m 14,8 C 17,9 C 0,0 km/h (0 Bft) 0,00 %
10.08.2015 05:51 17,8 C 82 % 1014,1 hPa 0,0 l/m 0,0 km/h (0 Bft) NO 48 0 min 0,000 mm 0,0 UV-I 0 W/m 14,7 C 17,8 C 0,0 km/h (0 Bft) 0,00 %
10.08.2015 05:56 17,6 C 83 % 1014,2 hPa 0,0 l/m 0,0 km/h (0 Bft) O-NO 66 0 min 0,000 mm 0,0 UV-I 4 W/m 14,7 C 17,6 C 0,0 km/h (0 Bft) 0,00 %
10.08.2015 06:01 17,6 C 84 % 1014,2 hPa 0,0 l/m 0,0 km/h (0 Bft) NO 39 0 min 0,000 mm 0,0 UV-I 9 W/m 14,9 C 17,6 C 0,0 km/h (0 Bft) 0,00 %
10.08.2015 06:06 17,6 C 85 % 1014,4 hPa 0,0 l/m 0,0 km/h (0 Bft) N-NO 12 5 min 0,000 mm 0,0 UV-I 19 W/m 15,0 C 17,6 C 0,0 km/h (0 Bft) 0,00 %
10.08.2015 06:11 17,7 C 85 % 1014,5 hPa 0,0 l/m 0,0 km/h (0 Bft) NO 43 5 min 0,000 mm 0,0 UV-I 26 W/m 15,1 C 17,7 C 0,0 km/h (0 Bft) 0,00 %
10.08.2015 06:16 17,8 C 84 % 1014,4 hPa 0,0 l/m 0,0 km/h (0 Bft) O-NO 60 5 min 0,000 mm 0,0 UV-I 40 W/m 15,1 C 17,8 C 0,0 km/h (0 Bft) 0,00 %
10.08.2015 06:21 18,0 C 83 % 1014,4 hPa 0,0 l/m 0,0 km/h (0 Bft) N-NO 28 5 min 0,000 mm 0,0 UV-I 55 W/m 15,1 C 18,0 C 0,0 km/h (0 Bft) 0,00 %
10.08.2015 06:26 18,3 C 82 % 1014,4 hPa 0,0 l/m 0,0 km/h (0 Bft) NO 47 5 min 0,000 mm 0,0 UV-I 69 W/m 15,2 C 18,3 C 0,0 km/h (0 Bft) 0,00 %
10.08.2015 06:31 18,8 C 80 % 1014,5 hPa 0,0 l/m 0,0 km/h (0 Bft) O-NO 67 5 min 0,000 mm 0,0 UV-I 86 W/m 15,3 C 18,8 C 0,0 km/h (0 Bft) 0,00 %
10.08.2015 06:36 19,1 C 75 % 1014,3 hPa 0,0 l/m 0,0 km/h (0 Bft) NO 54 5 min 0,000 mm 0,0 UV-I 91 W/m 14,6 C 19,1 C 0,0 km/h (0 Bft) 0,00 %
10.08.2015 06:41 19,6 C 71 % 1014,5 hPa 0,0 l/m 0,0 km/h (0 Bft) NO 49 5 min 0,000 mm 0,0 UV-I 113 W/m 14,2 C 19,6 C 0,0 km/h (0 Bft) 0,00 %
10.08.2015 06:46 20,0 C 70 % 1014,5 hPa 0,0 l/m 0,0 km/h (0 Bft) NO 56 5 min 0,000 mm 0,0 UV-I 130 W/m 14,4 C 20,0 C 0,0 km/h (0 Bft) 0,00 %
10.08.2015 06:51 20,5 C 68 % 1014,5 hPa 0,0 l/m 0,0 km/h (0 Bft) NO 45 5 min 0,000 mm 0,0 UV-I 134 W/m 14,4 C 20,5 C 0,0 km/h (0 Bft) 0,00 %
10.08.2015 06:56 20,9 C 66 % 1014,5 hPa 0,0 l/m 0,0 km/h (0 Bft) NO 37 5 min 0,000 mm 0,0 UV-I 153 W/m 14,3 C 20,9 C 0,0 km/h (0 Bft) 0,00 %
10.08.2015 07:01 21,4 C 64 % 1014,7 hPa 0,0 l/m 0,0 km/h (0 Bft) NO 39 5 min 0,000 mm 0,0 UV-I 158 W/m 14,3 C 21,4 C 0,0 km/h (0 Bft) 0,00 %
10.08.2015 07:06 21,8 C 64 % 1014,6 hPa 0,0 l/m 0,0 km/h (0 Bft) O-NO 62 5 min 0,000 mm 0,0 UV-I 182 W/m 14,7 C 21,8 C 0,0 km/h (0 Bft) 0,00 %
10.08.2015 07:11 22,1 C 63 % 1014,7 hPa 0,0 l/m 0,0 km/h (0 Bft) NO 44 5 min 0,000 mm 1,0 UV-I 196 W/m 14,7 C 22,1 C 0,0 km/h (0 Bft) 0,00 %
10.08.2015 07:16 22,5 C 61 % 1014,6 hPa 0,0 l/m 0,0 km/h (0 Bft) NO 44 5 min 0,000 mm 1,0 UV-I 203 W/m 14,6 C 22,5 C 0,0 km/h (0 Bft) 0,00 %
10.08.2015 07:21 22,9 C 61 % 1014,7 hPa 0,0 l/m 0,0 km/h (0 Bft) NO 47 5 min 0,000 mm 1,0 UV-I 194 W/m 15,0 C 22,9 C 0,0 km/h (0 Bft) 0,00 %
10.08.2015 07:26 23,4 C 59 % 1014,7 hPa 0,0 l/m 0,0 km/h (0 Bft) NO 47 5 min 0,000 mm 1,0 UV-I 194 W/m 14,9 C 23,4 C 0,0 km/h (0 Bft) 0,00 %
10.08.2015 07:31 23,8 C 57 % 1014,7 hPa 0,0 l/m 0,0 km/h (0 Bft) NO 43 5 min 0,000 mm 1,0 UV-I 183 W/m 14,8 C 23,8 C 0,0 km/h (0 Bft) 0,00 %
10.08.2015 07:36 23,9 C 56 % 1014,6 hPa 0,0 l/m 0,0 km/h (0 Bft) NO 37 5 min 0,000 mm 1,0 UV-I 203 W/m 14,6 C 23,9 C 0,0 km/h (0 Bft) 0,00 %
10.08.2015 07:41 24,0 C 57 % 1014,7 hPa 0,0 l/m 0,0 km/h (0 Bft) NO 40 5 min 0,000 mm 1,0 UV-I 223 W/m 14,9 C 24,0 C 0,0 km/h (0 Bft) 0,00 %
10.08.2015 07:46 24,2 C 56 % 1014,6 hPa 0,0 l/m 0,0 km/h (0 Bft) NO 43 5 min 0,000 mm 1,0 UV-I 241 W/m 14,9 C 24,2 C 0,0 km/h (0 Bft) 0,00 %
10.08.2015 07:51 24,6 C 54 % 1014,7 hPa 0,0 l/m 0,0 km/h (0 Bft) NO 51 5 min 0,000 mm 1,0 UV-I 249 W/m 14,7 C 24,6 C 0,0 km/h (0 Bft) 0,00 %
10.08.2015 07:56 25,1 C 53 % 1014,8 hPa 0,0 l/m 0,0 km/h (0 Bft) NO 47 5 min 0,000 mm 1,0 UV-I 256 W/m 14,8 C 25,1 C 0,0 km/h (0 Bft) 0,00 %
10.08.2015 08:01 25,4 C 50 % 1014,8 hPa 0,0 l/m 0,0 km/h (0 Bft) NO 47 5 min 0,000 mm 1,0 UV-I 260 W/m 14,2 C 25,4 C 0,0 km/h (0 Bft) 0,00 %
10.08.2015 08:06 25,9 C 50 % 1014,9 hPa 0,0 l/m 0,0 km/h (0 Bft) NO 39 5 min 0,000 mm 1,0 UV-I 268 W/m 14,7 C 25,9 C 0,0 km/h (0 Bft) 0,00 %
10.08.2015 08:11 26,5 C 51 % 1014,9 hPa 0,0 l/m 0,0 km/h (0 Bft) N 353 5 min 0,000 mm 1,0 UV-I 276 W/m 15,5 C 26,5 C 0,0 km/h (0 Bft) 0,00 %
10.08.2015 08:16 27,0 C 49 % 1015,0 hPa 0,0 l/m 0,0 km/h (0 Bft) NO 43 5 min 0,000 mm 1,0 UV-I 283 W/m 15,4 C 27,0 C 0,0 km/h (0 Bft) 0,00 %
10.08.2015 08:21 27,4 C 48 % 1015,0 hPa 0,0 l/m 0,0 km/h (0 Bft) NO 46 5 min 0,000 mm 1,0 UV-I 291 W/m 15,4 C 27,4 C 0,0 km/h (0 Bft) 0,00 %
10.08.2015 08:26 27,8 C 48 % 1014,9 hPa 0,0 l/m 0,0 km/h (0 Bft) NO 35 5 min 0,000 mm 1,0 UV-I 298 W/m 15,8 C 27,8 C 0,0 km/h (0 Bft) 0,00 %
10.08.2015 08:31 28,1 C 48 % 1014,9 hPa 0,0 l/m 0,0 km/h (0 Bft) NO 43 5 min 0,000 mm 1,0 UV-I 307 W/m 16,0 C 28,1 C 0,0 km/h (0 Bft) 0,00 %
10.08.2015 08:36 28,3 C 47 % 1014,9 hPa 0,0 l/m 0,0 km/h (0 Bft) N-NO 33 5 min 0,000 mm 1,0 UV-I 315 W/m 15,9 C 28,3 C 0,0 km/h (0 Bft) 0,00 %
10.08.2015 08:41 28,4 C 48 % 1014,9 hPa 0,0 l/m 0,0 km/h (0 Bft) NO 55 5 min 0,000 mm 1,0 UV-I 324 W/m 16,3 C 28,4 C 0,0 km/h (0 Bft) 0,00 %
10.08.2015 08:46 28,5 C 47 % 1014,9 hPa 0,0 l/m 0,4 km/h (0 Bft) N 351 5 min 0,000 mm 1,0 UV-I 333 W/m 16,1 C 28,5 C 4,0 km/h (1 Bft) 0,00 %
10.08.2015 08:51 28,7 C 48 % 1015,0 hPa 0,0 l/m 0,0 km/h (0 Bft) N-NO 32 5 min 0,000 mm 1,0 UV-I 327 W/m 16,6 C 28,7 C 0,0 km/h (0 Bft) 0,00 %
10.08.2015 08:56 28,6 C 50 % 1014,9 hPa 0,0 l/m 0,0 km/h (0 Bft) N 10 5 min 0,000 mm 1,0 UV-I 348 W/m 17,1 C 28,6 C 0,0 km/h (0 Bft) 0,00 %
10.08.2015 09:01 28,3 C 49 % 1014,8 hPa 0,0 l/m 0,0 km/h (0 Bft) N-NO 30 5 min 0,000 mm 1,0 UV-I 360 W/m 16,5 C 28,3 C 0,0 km/h (0 Bft) 0,00 %
10.08.2015 09:06 28,4 C 47 % 1014,7 hPa 0,0 l/m 0,0 km/h (0 Bft) N-NO 29 5 min 0,000 mm 1,0 UV-I 371 W/m 16,0 C 28,4 C 0,0 km/h (0 Bft) 0,00 %
10.08.2015 09:11 28,8 C 47 % 1014,7 hPa 0,0 l/m 0,0 km/h (0 Bft) NO 37 5 min 0,000 mm 1,0 UV-I 377 W/m 16,3 C 28,8 C 0,0 km/h (0 Bft) 0,00 %
10.08.2015 09:16 28,8 C 49 % 1014,9 hPa 0,0 l/m 0,0 km/h (0 Bft) O-NO 64 5 min 0,000 mm 2,0 UV-I 391 W/m 17,0 C 28,8 C 0,0 km/h (0 Bft) 0,00 %
10.08.2015 09:21 28,8 C 45 % 1014,9 hPa 0,0 l/m 0,0 km/h (0 Bft) NO 35 5 min 0,000 mm 2,0 UV-I 400 W/m 15,7 C 28,8 C 0,0 km/h (0 Bft) 0,00 %
10.08.2015 09:26 29,1 C 46 % 1015,0 hPa 0,0 l/m 0,0 km/h (0 Bft) O-NO 75 5 min 0,000 mm 2,0 UV-I 411 W/m 16,3 C 29,1 C 0,0 km/h (0 Bft) 0,00 %
10.08.2015 09:31 29,3 C 45 % 1014,7 hPa 0,0 l/m 0,0 km/h (0 Bft) O-NO 60 5 min 0,000 mm 2,0 UV-I 426 W/m 16,1 C 29,3 C 0,0 km/h (0 Bft) 0,00 %
10.08.2015 09:36 29,5 C 43 % 1014,6 hPa 0,0 l/m 1,4 km/h (1 Bft) O-NO 77 5 min 0,000 mm 2,0 UV-I 416 W/m 15,6 C 29,5 C 4,0 km/h (1 Bft) 0,00 %
10.08.2015 09:41 29,9 C 43 % 1014,9 hPa 0,0 l/m 0,0 km/h (0 Bft) N 349 5 min 0,000 mm 2,0 UV-I 449 W/m 15,9 C 29,9 C 0,0 km/h (0 Bft) 0,00 %
10.08.2015 09:46 30,2 C 42 % 1014,8 hPa 0,0 l/m 0,0 km/h (0 Bft) NO 36 5 min 0,000 mm 2,0 UV-I 462 W/m 15,8 C 30,2 C 0,0 km/h (0 Bft) 0,00 %
10.08.2015 09:51 30,3 C 42 % 1014,7 hPa 0,0 l/m 0,4 km/h (0 Bft) N-NO 27 5 min 0,000 mm 2,0 UV-I 470 W/m 15,9 C 30,3 C 4,0 km/h (1 Bft) 0,00 %
10.08.2015 09:56 30,2 C 43 % 1014,6 hPa 0,0 l/m 0,7 km/h (0 Bft) N-NO 18 5 min 0,000 mm 2,0 UV-I 483 W/m 16,2 C 30,2 C 4,0 km/h (1 Bft) 0,00 %
10.08.2015 10:01 30,1 C 42 % 1014,7 hPa 0,0 l/m 0,4 km/h (0 Bft) N 5 5 min 0,000 mm 2,0 UV-I 496 W/m 15,7 C 30,1 C 4,0 km/h (1 Bft) 0,00 %
10.08.2015 10:06 29,9 C 43 % 1014,8 hPa 0,0 l/m 0,4 km/h (0 Bft) N-NO 25 5 min 0,000 mm 2,0 UV-I 510 W/m 15,9 C 29,9 C 4,0 km/h (1 Bft) 0,00 %
10.08.2015 10:11 30,0 C 45 % 1014,6 hPa 0,0 l/m 0,0 km/h (0 Bft) NO 34 5 min 0,000 mm 2,0 UV-I 518 W/m 16,7 C 30,0 C 0,0 km/h (0 Bft) 0,00 %
10.08.2015 10:16 30,0 C 43 % 1014,7 hPa 0,0 l/m 0,0 km/h (0 Bft) NO 53 5 min 0,000 mm 2,0 UV-I 533 W/m 16,0 C 30,0 C 0,0 km/h (0 Bft) 0,00 %
10.08.2015 10:21 30,0 C 43 % 1014,6 hPa 0,0 l/m 0,0 km/h (0 Bft) NO 46 5 min 0,000 mm 2,0 UV-I 547 W/m 16,0 C 30,0 C 0,0 km/h (0 Bft) 0,00 %
10.08.2015 10:26 30,1 C 42 % 1014,5 hPa 0,0 l/m 0,0 km/h (0 Bft) O-SO 102 5 min 0,000 mm 2,0 UV-I 562 W/m 15,7 C 30,1 C 0,0 km/h (0 Bft) 0,00 %
10.08.2015 10:31 30,3 C 41 % 1014,6 hPa 0,0 l/m 0,0 km/h (0 Bft) NO 50 5 min 0,000 mm 2,0 UV-I 576 W/m 15,6 C 30,3 C 0,0 km/h (0 Bft) 0,00 %
10.08.2015 10:36 30,3 C 41 % 1014,5 hPa 0,0 l/m 0,0 km/h (0 Bft) NO 47 5 min 0,000 mm 2,0 UV-I 586 W/m 15,6 C 30,3 C 0,0 km/h (0 Bft) 0,00 %
10.08.2015 10:41 30,3 C 41 % 1014,4 hPa 0,0 l/m 0,0 km/h (0 Bft) N 349 5 min 0,000 mm 2,0 UV-I 598 W/m 15,6 C 30,3 C 0,0 km/h (0 Bft) 0,00 %
10.08.2015 10:46 30,5 C 42 % 1014,5 hPa 0,0 l/m 0,0 km/h (0 Bft) NO 55 5 min 0,000 mm 3,0 UV-I 613 W/m 16,1 C 30,5 C 0,0 km/h (0 Bft) 0,00 %
10.08.2015 10:51 30,8 C 40 % 1014,5 hPa 0,0 l/m 1,4 km/h (1 Bft) NO 46 5 min 0,000 mm 3,0 UV-I 627 W/m 15,6 C 30,8 C 4,0 km/h (1 Bft) 0,00 %
10.08.2015 10:56 30,9 C 41 % 1014,5 hPa 0,0 l/m 0,0 km/h (0 Bft) NO 34 5 min 0,000 mm 3,0 UV-I 641 W/m 16,1 C 30,9 C 0,0 km/h (0 Bft) 0,00 %
10.08.2015 11:01 30,9 C 40 % 1014,4 hPa 0,0 l/m 4,7 km/h (1 Bft) SO 125 5 min 0,000 mm 3,0 UV-I 656 W/m 15,7 C 30,9 C 7,9 km/h (2 Bft) 0,00 %
10.08.2015 11:06 30,7 C 40 % 1014,4 hPa 0,0 l/m 0,0 km/h (0 Bft) O 87 5 min 0,000 mm 3,0 UV-I 664 W/m 15,5 C 30,7 C 0,0 km/h (0 Bft) 0,00 %
10.08.2015 11:11 30,9 C 39 % 1014,2 hPa 0,0 l/m 2,2 km/h (1 Bft) NO 53 5 min 0,000 mm 3,0 UV-I 681 W/m 15,3 C 30,9 C 7,9 km/h (2 Bft) 0,00 %
10.08.2015 11:16 30,9 C 40 % 1014,3 hPa 0,0 l/m 0,4 km/h (0 Bft) N 352 5 min 0,000 mm 3,0 UV-I 688 W/m 15,7 C 30,9 C 4,0 km/h (1 Bft) 0,00 %
10.08.2015 11:21 30,7 C 39 % 1014,3 hPa 0,0 l/m 0,4 km/h (0 Bft) N-NO 33 5 min 0,000 mm 3,0 UV-I 695 W/m 15,1 C 30,7 C 4,0 km/h (1 Bft) 0,00 %
10.08.2015 11:26 30,7 C 39 % 1014,1 hPa 0,0 l/m 2,2 km/h (1 Bft) N 356 5 min 0,000 mm 3,0 UV-I 717 W/m 15,1 C 30,7 C 4,0 km/h (1 Bft) 0,00 %
10.08.2015 11:31 30,7 C 39 % 1014,1 hPa 0,0 l/m 0,0 km/h (0 Bft) NO 47 5 min 0,000 mm 3,0 UV-I 721 W/m 15,1 C 30,7 C 0,0 km/h (0 Bft) 0,00 %
10.08.2015 11:36 30,8 C 37 % 1014,2 hPa 0,0 l/m 0,0 km/h (0 Bft) O-SO 120 5 min 0,000 mm 3,0 UV-I 731 W/m 14,4 C 30,8 C 0,0 km/h (0 Bft) 0,00 %
10.08.2015 11:41 31,1 C 37 % 1014,0 hPa 0,0 l/m 4,7 km/h (1 Bft) NW 318 5 min 0,000 mm 4,0 UV-I 756 W/m 14,7 C 31,1 C 7,9 km/h (2 Bft) 0,00 %
10.08.2015 11:46 31,2 C 37 % 1014,0 hPa 0,0 l/m 2,2 km/h (1 Bft) O 79 5 min 0,000 mm 4,0 UV-I 767 W/m 14,8 C 31,2 C 4,0 km/h (1 Bft) 0,00 %
10.08.2015 11:51 31,1 C 38 % 1013,9 hPa 0,0 l/m 2,9 km/h (1 Bft) O 83 5 min 0,000 mm 4,0 UV-I 770 W/m 15,1 C 31,1 C 4,0 km/h (1 Bft) 0,00 %
10.08.2015 11:56 31,0 C 37 % 1013,8 hPa 0,0 l/m 0,7 km/h (0 Bft) O-SO 107 5 min 0,000 mm 4,0 UV-I 779 W/m 14,6 C 31,0 C 4,0 km/h (1 Bft) 0,00 %
10.08.2015 12:01 30,9 C 38 % 1013,9 hPa 0,0 l/m 1,8 km/h (1 Bft) N-NO 32 5 min 0,000 mm 4,0 UV-I 790 W/m 14,9 C 30,9 C 4,0 km/h (1 Bft) 0,00 %
10.08.2015 12:06 31,0 C 37 % 1013,6 hPa 0,0 l/m 0,7 km/h (0 Bft) NO 43 5 min 0,000 mm 4,0 UV-I 785 W/m 14,6 C 31,0 C 4,0 km/h (1 Bft) 0,00 %
10.08.2015 12:11 31,2 C 34 % 1013,7 hPa 0,0 l/m 0,0 km/h (0 Bft) O 90 5 min 0,000 mm 4,0 UV-I 803 W/m 13,4 C 31,2 C 0,0 km/h (0 Bft) 0,00 %
10.08.2015 12:16 31,4 C 30 % 1013,7 hPa 0,0 l/m 0,7 km/h (0 Bft) NW 318 5 min 0,000 mm 4,0 UV-I 812 W/m 11,7 C 31,4 C 4,0 km/h (1 Bft) 0,00 %
10.08.2015 12:21 31,6 C 29 % 1013,7 hPa 0,0 l/m 2,9 km/h (1 Bft) O-NO 70 5 min 0,000 mm 4,0 UV-I 815 W/m 11,4 C 31,6 C 4,0 km/h (1 Bft) 0,00 %
10.08.2015 12:26 31,6 C 29 % 1013,5 hPa 0,0 l/m 4,3 km/h (1 Bft) O-SO 120 5 min 0,000 mm 4,0 UV-I 810 W/m 11,4 C 31,6 C 7,9 km/h (2 Bft) 0,00 %
10.08.2015 12:31 31,5 C 30 % 1013,4 hPa 0,0 l/m 1,4 km/h (1 Bft) N-NO 31 5 min 0,000 mm 4,0 UV-I 792 W/m 11,8 C 31,5 C 4,0 km/h (1 Bft) 0,00 %
10.08.2015 12:36 31,4 C 30 % 1013,4 hPa 0,0 l/m 4,3 km/h (1 Bft) N-NO 32 5 min 0,000 mm 4,0 UV-I 813 W/m 11,7 C 31,4 C 7,9 km/h (2 Bft) 0,00 %
10.08.2015 12:41 31,4 C 28 % 1013,4 hPa 0,0 l/m 10,8 km/h (2 Bft) SO 146 5 min 0,000 mm 4,0 UV-I 826 W/m 10,7 C 31,2 C 15,8 km/h (3 Bft) 0,00 %
10.08.2015 12:46 31,4 C 28 % 1013,4 hPa 0,0 l/m 0,0 km/h (0 Bft) O-NO 61 5 min 0,000 mm 5,0 UV-I 840 W/m 10,7 C 31,4 C 0,0 km/h (0 Bft) 0,00 %
10.08.2015 12:51 31,5 C 25 % 1013,3 hPa 0,0 l/m 0,4 km/h (0 Bft) O 79 5 min 0,000 mm 5,0 UV-I 836 W/m 9,1 C 31,5 C 4,0 km/h (1 Bft) 0,00 %
10.08.2015 12:56 31,8 C 27 % 1013,2 hPa 0,0 l/m 0,0 km/h (0 Bft) O-NO 68 5 min 0,000 mm 4,0 UV-I 814 W/m 10,5 C 31,8 C 0,0 km/h (0 Bft) 0,00 %
10.08.2015 13:01 32,0 C 26 % 1013,2 hPa 0,0 l/m 7,9 km/h (2 Bft) O-NO 75 5 min 0,000 mm 4,0 UV-I 826 W/m 10,1 C 32,0 C 11,9 km/h (2 Bft) 0,00 %
10.08.2015 13:06 32,0 C 25 % 1013,2 hPa 0,0 l/m 0,0 km/h (0 Bft) NO 48 5 min 0,000 mm 4,0 UV-I 843 W/m 9,5 C 32,0 C 0,0 km/h (0 Bft) 0,00 %
10.08.2015 13:11 31,9 C 26 % 1013,1 hPa 0,0 l/m 1,4 km/h (1 Bft) N 352 5 min 0,000 mm 4,0 UV-I 856 W/m 10,0 C 31,9 C 4,0 km/h (1 Bft) 0,00 %
10.08.2015 13:16 32,0 C 26 % 1013,0 hPa 0,0 l/m 4,0 km/h (1 Bft) N 6 5 min 0,000 mm 4,0 UV-I 867 W/m 10,1 C 32,0 C 4,0 km/h (1 Bft) 0,00 %
10.08.2015 13:21 32,0 C 24 % 1013,0 hPa 0,0 l/m 0,0 km/h (0 Bft) O 92 5 min 0,000 mm 4,0 UV-I 822 W/m 8,9 C 32,0 C 0,0 km/h (0 Bft) 0,00 %
10.08.2015 13:26 31,8 C 22 % 1013,0 hPa 0,0 l/m 0,4 km/h (0 Bft) N-NO 22 5 min 0,000 mm 4,0 UV-I 845 W/m 7,4 C 31,8 C 4,0 km/h (1 Bft) 0,00 %
10.08.2015 13:31 31,6 C 23 % 1013,1 hPa 0,0 l/m 6,8 km/h (2 Bft) O-SO 120 5 min 0,000 mm 4,0 UV-I 851 W/m 7,9 C 31,6 C 11,9 km/h (2 Bft) 0,00 %
10.08.2015 13:37 31,7 C 26 % 1013,0 hPa 0,0 l/m 0,4 km/h (0 Bft) NO 54 6 min 0,000 mm 4,0 UV-I 868 W/m 9,8 C 31,7 C 4,0 km/h (1 Bft) 0,00 %
10.08.2015 13:42 32,1 C 24 % 1013,0 hPa 0,0 l/m 2,2 km/h (1 Bft) N-NO 12 5 min 0,000 mm 4,0 UV-I 868 W/m 9,0 C 32,1 C 4,0 km/h (1 Bft) 0,00 %
10.08.2015 13:47 32,2 C 25 % 1012,9 hPa 0,0 l/m 4,0 km/h (1 Bft) O-SO 102 5 min 0,000 mm 4,0 UV-I 873 W/m 9,6 C 32,2 C 7,9 km/h (2 Bft) 0,00 %
10.08.2015 13:52 32,2 C 25 % 1012,9 hPa 0,0 l/m 0,0 km/h (0 Bft) NO 50 5 min 0,000 mm 4,0 UV-I 896 W/m 9,6 C 32,2 C 0,0 km/h (0 Bft) 0,00 %
10.08.2015 13:57 32,5 C 22 % 1012,8 hPa 0,0 l/m 1,4 km/h (1 Bft) SO 127 5 min 0,000 mm 4,0 UV-I 884 W/m 8,0 C 32,5 C 4,0 km/h (1 Bft) 0,00 %
10.08.2015 14:02 32,7 C 23 % 1012,8 hPa 0,0 l/m 2,9 km/h (1 Bft) O 91 5 min 0,000 mm 4,0 UV-I 874 W/m 8,8 C 32,7 C 7,9 km/h (2 Bft) 0,00 %
10.08.2015 14:07 32,5 C 23 % 1012,7 hPa 0,0 l/m 0,4 km/h (0 Bft) O-SO 120 5 min 0,000 mm 4,0 UV-I 883 W/m 8,7 C 32,5 C 4,0 km/h (1 Bft) 0,00 %
10.08.2015 14:12 32,4 C 23 % 1012,6 hPa 0,0 l/m 0,4 km/h (0 Bft) N 353 5 min 0,000 mm 4,0 UV-I 890 W/m 8,6 C 32,4 C 4,0 km/h (1 Bft) 0,00 %
10.08.2015 14:17 32,5 C 23 % 1012,6 hPa 0,0 l/m 4,0 km/h (1 Bft) O 100 5 min 0,000 mm 4,0 UV-I 902 W/m 8,7 C 32,5 C 7,9 km/h (2 Bft) 0,00 %
10.08.2015 14:22 32,7 C 22 % 1012,5 hPa 0,0 l/m 5,4 km/h (1 Bft) O-NO 74 5 min 0,000 mm 4,0 UV-I 891 W/m 8,2 C 32,7 C 7,9 km/h (2 Bft) 0,00 %
10.08.2015 14:27 32,7 C 20 % 1012,4 hPa 0,0 l/m 0,0 km/h (0 Bft) N-NO 33 5 min 0,000 mm 4,0 UV-I 902 W/m 6,8 C 32,7 C 0,0 km/h (0 Bft) 0,00 %
10.08.2015 14:32 32,8 C 21 % 1012,3 hPa 0,0 l/m 1,4 km/h (1 Bft) N-NO 17 5 min 0,000 mm 4,0 UV-I 914 W/m 7,6 C 32,8 C 4,0 km/h (1 Bft) 0,00 %
10.08.2015 14:37 33,0 C 21 % 1012,3 hPa 0,0 l/m 2,9 km/h (1 Bft) O 98 5 min 0,000 mm 4,0 UV-I 908 W/m 7,7 C 33,0 C 4,0 km/h (1 Bft) 0,00 %
10.08.2015 14:42 33,2 C 17 % 1012,4 hPa 0,0 l/m 0,7 km/h (0 Bft) O 93 5 min 0,000 mm 4,0 UV-I 909 W/m 4,8 C 33,2 C 4,0 km/h (1 Bft) 0,00 %
10.08.2015 14:47 33,2 C 16 % 1012,2 hPa 0,0 l/m 9,4 km/h (2 Bft) O-SO 111 5 min 0,000 mm 3,0 UV-I 910 W/m 4,0 C 33,2 C 11,9 km/h (2 Bft) 0,00 %
10.08.2015 14:52 33,1 C 14 % 1012,0 hPa 0,0 l/m 0,0 km/h (0 Bft) NO 53 5 min 0,000 mm 3,0 UV-I 918 W/m 2,0 C 33,1 C 0,0 km/h (0 Bft) 0,00 %
10.08.2015 14:57 33,1 C 20 % 1012,2 hPa 0,0 l/m 0,0 km/h (0 Bft) N-NO 23 5 min 0,000 mm 3,0 UV-I 925 W/m 7,1 C 33,1 C 0,0 km/h (0 Bft) 0,00 %
10.08.2015 15:02 33,3 C 18 % 1012,0 hPa 0,0 l/m 4,0 km/h (1 Bft) O-SO 104 5 min 0,000 mm 3,0 UV-I 919 W/m 5,7 C 33,3 C 7,9 km/h (2 Bft) 0,00 %
10.08.2015 15:07 33,3 C 16 % 1012,1 hPa 0,0 l/m 2,2 km/h (1 Bft) N-NO 30 5 min 0,000 mm 3,0 UV-I 904 W/m 4,1 C 33,3 C 4,0 km/h (1 Bft) 0,00 %
10.08.2015 15:12 33,2 C 18 % 1012,0 hPa 0,0 l/m 0,0 km/h (0 Bft) N-NW 327 5 min 0,000 mm 3,0 UV-I 903 W/m 5,7 C 33,2 C 0,0 km/h (0 Bft) 0,00 %
10.08.2015 15:17 33,1 C 20 % 1012,0 hPa 0,0 l/m 0,0 km/h (0 Bft) N 352 5 min 0,000 mm 3,0 UV-I 906 W/m 7,1 C 33,1 C 0,0 km/h (0 Bft) 0,00 %
10.08.2015 15:22 33,1 C 16 % 1011,8 hPa 0,0 l/m 5,8 km/h (2 Bft) O-SO 103 5 min 0,000 mm 3,0 UV-I 909 W/m 3,9 C 33,1 C 7,9 km/h (2 Bft) 0,00 %
10.08.2015 15:27 33,3 C 13 % 1011,7 hPa 0,0 l/m 6,5 km/h (2 Bft) O 80 5 min 0,000 mm 3,0 UV-I 918 W/m 1,1 C 33,3 C 11,9 km/h (2 Bft) 0,00 %
10.08.2015 15:32 33,2 C 17 % 1011,8 hPa 0,0 l/m 9,0 km/h (2 Bft) O-SO 119 5 min 0,000 mm 3,0 UV-I 904 W/m 4,8 C 33,2 C 11,9 km/h (2 Bft) 0,00 %
10.08.2015 15:37 33,1 C 14 % 1011,8 hPa 0,0 l/m 0,7 km/h (0 Bft) NO 39 5 min 0,000 mm 3,0 UV-I 905 W/m 2,0 C 33,1 C 4,0 km/h (1 Bft) 0,00 %
10.08.2015 15:42 32,9 C 15 % 1011,8 hPa 0,0 l/m 2,2 km/h (1 Bft) SO 145 5 min 0,000 mm 3,0 UV-I 902 W/m 2,8 C 32,9 C 4,0 km/h (1 Bft) 0,00 %
10.08.2015 15:47 32,8 C 15 % 1011,8 hPa 0,0 l/m 6,5 km/h (2 Bft) O 101 5 min 0,000 mm 3,0 UV-I 899 W/m 2,7 C 32,8 C 7,9 km/h (2 Bft) 0,00 %
10.08.2015 15:52 32,8 C 14 % 1011,8 hPa 0,0 l/m 0,0 km/h (0 Bft) NO 48 5 min 0,000 mm 3,0 UV-I 900 W/m 1,8 C 32,8 C 0,0 km/h (0 Bft) 0,00 %
10.08.2015 15:57 33,0 C 13 % 1011,5 hPa 0,0 l/m 2,2 km/h (1 Bft) SO 132 5 min 0,000 mm 3,0 UV-I 899 W/m 0,9 C 33,0 C 4,0 km/h (1 Bft) 0,00 %
10.08.2015 16:02 33,3 C 13 % 1011,8 hPa 0,0 l/m 6,5 km/h (2 Bft) SO 133 5 min 0,000 mm 2,0 UV-I 888 W/m 1,1 C 33,3 C 7,9 km/h (2 Bft) 0,00 %
10.08.2015 16:07 33,3 C 15 % 1011,6 hPa 0,0 l/m 2,2 km/h (1 Bft) O 100 5 min 0,000 mm 2,0 UV-I 875 W/m 3,1 C 33,3 C 4,0 km/h (1 Bft) 0,00 %
10.08.2015 16:12 33,0 C 15 % 1011,7 hPa 0,0 l/m 9,0 km/h (2 Bft) SO 124 5 min 0,000 mm 1,0 UV-I 871 W/m 2,9 C 33,0 C 11,9 km/h (2 Bft) 0,00 %
10.08.2015 16:17 32,9 C 16 % 1011,7 hPa 0,0 l/m 0,0 km/h (0 Bft) O-SO 109 5 min 0,000 mm 1,0 UV-I 868 W/m 3,7 C 32,9 C 0,0 km/h (0 Bft) 0,00 %
10.08.2015 16:22 32,9 C 15 % 1011,6 hPa 0,0 l/m 7,2 km/h (2 Bft) SO 130 5 min 0,000 mm 1,0 UV-I 864 W/m 2,8 C 32,9 C 11,9 km/h (2 Bft) 0,00 %
10.08.2015 16:27 32,7 C 16 % 1011,4 hPa 0,0 l/m 0,7 km/h (0 Bft) NO 41 5 min 0,000 mm 1,0 UV-I 853 W/m 3,6 C 32,7 C 4,0 km/h (1 Bft) 0,00 %
10.08.2015 16:32 32,7 C 16 % 1011,4 hPa 0,0 l/m 1,4 km/h (1 Bft) O 81 5 min 0,000 mm 1,0 UV-I 853 W/m 3,6 C 32,7 C 4,0 km/h (1 Bft) 0,00 %
10.08.2015 16:37 32,8 C 14 % 1011,2 hPa 0,0 l/m 8,3 km/h (2 Bft) SO 127 5 min 0,000 mm 1,0 UV-I 856 W/m 1,8 C 32,8 C 15,8 km/h (3 Bft) 0,00 %
10.08.2015 16:42 33,0 C 15 % 1011,4 hPa 0,0 l/m 4,0 km/h (1 Bft) N-NW 335 5 min 0,000 mm 1,0 UV-I 824 W/m 2,9 C 33,0 C 7,9 km/h (2 Bft) 0,00 %
10.08.2015 16:47 33,0 C 18 % 1011,5 hPa 0,0 l/m 0,4 km/h (0 Bft) O 86 5 min 0,000 mm 1,0 UV-I 840 W/m 5,5 C 33,0 C 4,0 km/h (1 Bft) 0,00 %
10.08.2015 16:52 32,8 C 18 % 1011,3 hPa 0,0 l/m 6,8 km/h (2 Bft) O-SO 103 5 min 0,000 mm 1,0 UV-I 820 W/m 5,3 C 32,8 C 11,9 km/h (2 Bft) 0,00 %
10.08.2015 16:57 32,7 C 20 % 1011,3 hPa 0,0 l/m 7,2 km/h (2 Bft) W-SW 239 5 min 0,000 mm 1,0 UV-I 817 W/m 6,8 C 32,7 C 11,9 km/h (2 Bft) 0,00 %
10.08.2015 17:02 32,6 C 20 % 1011,4 hPa 0,0 l/m 0,4 km/h (0 Bft) N 5 5 min 0,000 mm 1,0 UV-I 803 W/m 6,7 C 32,6 C 4,0 km/h (1 Bft) 0,00 %
10.08.2015 17:07 32,6 C 19 % 1011,3 hPa 0,0 l/m 12,2 km/h (2 Bft) O-SO 107 5 min 0,000 mm 1,0 UV-I 794 W/m 6,0 C 32,5 C 15,8 km/h (3 Bft) 0,00 %
10.08.2015 17:12 32,6 C 21 % 1011,4 hPa 0,0 l/m 0,4 km/h (0 Bft) N-NW 345 5 min 0,000 mm 1,0 UV-I 794 W/m 7,4 C 32,6 C 4,0 km/h (1 Bft) 0,00 %
10.08.2015 17:17 32,3 C 22 % 1011,4 hPa 0,0 l/m 6,8 km/h (2 Bft) O 95 5 min 0,000 mm 1,0 UV-I 773 W/m 7,8 C 32,3 C 11,9 km/h (2 Bft) 0,00 %
10.08.2015 17:22 32,3 C 22 % 1011,3 hPa 0,0 l/m 7,2 km/h (2 Bft) O-SO 105 5 min 0,000 mm 1,0 UV-I 754 W/m 7,8 C 32,3 C 11,9 km/h (2 Bft) 0,00 %
10.08.2015 17:27 32,3 C 22 % 1011,3 hPa 0,0 l/m 4,3 km/h (1 Bft) O-NO 76 5 min 0,000 mm 1,0 UV-I 751 W/m 7,8 C 32,3 C 7,9 km/h (2 Bft) 0,00 %
10.08.2015 17:32 32,3 C 20 % 1011,4 hPa 0,0 l/m 2,9 km/h (1 Bft) O-SO 120 5 min 0,000 mm 1,0 UV-I 744 W/m 6,5 C 32,3 C 4,0 km/h (1 Bft) 0,00 %
10.08.2015 17:37 32,4 C 20 % 1011,2 hPa 0,0 l/m 3,2 km/h (1 Bft) O 93 5 min 0,000 mm 1,0 UV-I 730 W/m 6,5 C 32,4 C 7,9 km/h (2 Bft) 0,00 %
10.08.2015 17:42 32,4 C 22 % 1011,2 hPa 0,0 l/m 7,2 km/h (2 Bft) NO 46 5 min 0,000 mm 1,0 UV-I 706 W/m 7,9 C 32,4 C 11,9 km/h (2 Bft) 0,00 %
10.08.2015 17:47 32,4 C 22 % 1011,2 hPa 0,0 l/m 2,9 km/h (1 Bft) N-NO 30 5 min 0,000 mm 1,0 UV-I 692 W/m 7,9 C 32,4 C 7,9 km/h (2 Bft) 0,00 %
10.08.2015 17:52 32,2 C 22 % 1011,2 hPa 0,0 l/m 5,8 km/h (2 Bft) O-NO 76 5 min 0,000 mm 1,0 UV-I 692 W/m 7,8 C 32,2 C 7,9 km/h (2 Bft) 0,00 %
10.08.2015 17:57 32,1 C 22 % 1011,3 hPa 0,0 l/m 2,9 km/h (1 Bft) O 89 5 min 0,000 mm 1,0 UV-I 674 W/m 7,7 C 32,1 C 7,9 km/h (2 Bft) 0,00 %
10.08.2015 18:02 32,1 C 22 % 1011,1 hPa 0,0 l/m 10,4 km/h (2 Bft) O-NO 78 5 min 0,000 mm 1,0 UV-I 664 W/m 7,7 C 32,0 C 11,9 km/h (2 Bft) 0,00 %
10.08.2015 18:07 32,1 C 19 % 1011,0 hPa 0,0 l/m 11,9 km/h (2 Bft) O-SO 117 5 min 0,000 mm 1,0 UV-I 654 W/m 5,5 C 32,0 C 15,8 km/h (3 Bft) 0,00 %
10.08.2015 18:12 31,8 C 19 % 1011,0 hPa 0,0 l/m 4,7 km/h (1 Bft) S 177 5 min 0,000 mm 1,0 UV-I 638 W/m 5,3 C 31,8 C 7,9 km/h (2 Bft) 0,00 %
10.08.2015 18:17 31,7 C 19 % 1011,0 hPa 0,0 l/m 0,0 km/h (0 Bft) NO 36 5 min 0,000 mm 1,0 UV-I 625 W/m 5,2 C 31,7 C 0,0 km/h (0 Bft) 0,00 %
10.08.2015 18:22 31,8 C 19 % 1010,9 hPa 0,0 l/m 9,0 km/h (2 Bft) O-SO 104 5 min 0,000 mm 1,0 UV-I 612 W/m 5,3 C 31,7 C 11,9 km/h (2 Bft) 0,00 %
10.08.2015 18:27 31,8 C 19 % 1011,1 hPa 0,0 l/m 5,4 km/h (1 Bft) O 95 5 min 0,000 mm 1,0 UV-I 594 W/m 5,3 C 31,8 C 7,9 km/h (2 Bft) 0,00 %
10.08.2015 18:32 31,8 C 20 % 1011,1 hPa 0,0 l/m 2,9 km/h (1 Bft) SO 141 5 min 0,000 mm 1,0 UV-I 579 W/m 6,0 C 31,8 C 7,9 km/h (2 Bft) 0,00 %
10.08.2015 18:37 31,8 C 19 % 1010,9 hPa 0,0 l/m 8,3 km/h (2 Bft) O-SO 103 5 min 0,000 mm 1,0 UV-I 558 W/m 5,3 C 31,7 C 11,9 km/h (2 Bft) 0,00 %
10.08.2015 18:42 31,7 C 19 % 1011,0 hPa 0,0 l/m 4,3 km/h (1 Bft) O-NO 78 5 min 0,000 mm 1,0 UV-I 533 W/m 5,2 C 31,7 C 7,9 km/h (2 Bft) 0,00 %
10.08.2015 18:47 31,6 C 19 % 1011,0 hPa 0,0 l/m 1,8 km/h (1 Bft) O-SO 107 5 min 0,000 mm 1,0 UV-I 505 W/m 5,1 C 31,6 C 4,0 km/h (1 Bft) 0,00 %
10.08.2015 18:52 31,4 C 19 % 1011,0 hPa 0,0 l/m 6,5 km/h (2 Bft) O 95 5 min 0,000 mm 1,0 UV-I 486 W/m 5,0 C 31,4 C 7,9 km/h (2 Bft) 0,00 %
10.08.2015 18:57 31,4 C 20 % 1010,8 hPa 0,0 l/m 7,9 km/h (2 Bft) O-SO 118 5 min 0,000 mm 1,0 UV-I 468 W/m 5,7 C 31,3 C 11,9 km/h (2 Bft) 0,00 %
10.08.2015 19:02 31,4 C 20 % 1010,9 hPa 0,0 l/m 6,8 km/h (2 Bft) O 100 5 min 0,000 mm 1,0 UV-I 438 W/m 5,7 C 31,4 C 11,9 km/h (2 Bft) 0,00 %
10.08.2015 19:07 31,2 C 19 % 1011,0 hPa 0,0 l/m 4,0 km/h (1 Bft) O-NO 71 5 min 0,000 mm 1,0 UV-I 409 W/m 4,8 C 31,2 C 4,0 km/h (1 Bft) 0,00 %
10.08.2015 19:12 31,1 C 20 % 1011,0 hPa 0,0 l/m 0,0 km/h (0 Bft) O-NO 63 5 min 0,000 mm 1,0 UV-I 381 W/m 5,5 C 31,1 C 0,0 km/h (0 Bft) 0,00 %
10.08.2015 19:17 31,1 C 20 % 1011,0 hPa 0,0 l/m 4,0 km/h (1 Bft) O-SO 105 5 min 0,000 mm 0,0 UV-I 346 W/m 5,5 C 31,1 C 7,9 km/h (2 Bft) 0,00 %
10.08.2015 19:22 31,0 C 20 % 1011,1 hPa 0,0 l/m 0,0 km/h (0 Bft) NO 40 5 min 0,000 mm 0,0 UV-I 319 W/m 5,4 C 31,0 C 0,0 km/h (0 Bft) 0,00 %
10.08.2015 19:27 30,9 C 22 % 1010,9 hPa 0,0 l/m 0,0 km/h (0 Bft) O 82 5 min 0,000 mm 0,0 UV-I 286 W/m 6,7 C 30,9 C 0,0 km/h (0 Bft) 0,00 %
10.08.2015 19:32 30,7 C 22 % 1011,0 hPa 0,0 l/m 1,4 km/h (1 Bft) N-NO 29 5 min 0,000 mm 0,0 UV-I 251 W/m 6,5 C 30,7 C 4,0 km/h (1 Bft) 0,00 %
10.08.2015 19:37 30,5 C 23 % 1011,2 hPa 0,0 l/m 2,2 km/h (1 Bft) O-NO 78 5 min 0,000 mm 0,0 UV-I 220 W/m 7,0 C 30,5 C 4,0 km/h (1 Bft) 0,00 %
10.08.2015 19:42 30,2 C 24 % 1011,2 hPa 0,0 l/m 0,0 km/h (0 Bft) NO 47 5 min 0,000 mm 0,0 UV-I 177 W/m 7,4 C 30,2 C 0,0 km/h (0 Bft) 0,00 %
10.08.2015 19:47 30,0 C 25 % 1011,1 hPa 0,0 l/m 0,4 km/h (0 Bft) O-NO 65 5 min 0,000 mm 0,0 UV-I 105 W/m 7,8 C 30,0 C 4,0 km/h (1 Bft) 0,00 %
10.08.2015 19:52 29,7 C 25 % 1011,1 hPa 0,0 l/m 0,0 km/h (0 Bft) O 95 5 min 0,000 mm 0,0 UV-I 64 W/m 7,6 C 29,7 C 0,0 km/h (0 Bft) 0,00 %
10.08.2015 19:57 29,4 C 26 % 1010,9 hPa 0,0 l/m 0,4 km/h (0 Bft) O-SO 110 5 min 0,000 mm 0,0 UV-I 52 W/m 7,9 C 29,4 C 4,0 km/h (1 Bft) 0,00 %
10.08.2015 20:02 29,1 C 27 % 1011,1 hPa 0,0 l/m 0,0 km/h (0 Bft) NO 47 5 min 0,000 mm 0,0 UV-I 40 W/m 8,2 C 29,1 C 0,0 km/h (0 Bft) 0,00 %
10.08.2015 20:07 28,8 C 28 % 1011,1 hPa 0,0 l/m 0,0 km/h (0 Bft) NO 50 5 min 0,000 mm 0,0 UV-I 31 W/m 8,5 C 28,8 C 0,0 km/h (0 Bft) 0,00 %
10.08.2015 20:12 28,4 C 29 % 1010,9 hPa 0,0 l/m 0,0 km/h (0 Bft) NO 51 5 min 0,000 mm 0,0 UV-I 19 W/m 8,6 C 28,4 C 0,0 km/h (0 Bft) 0,00 %
10.08.2015 20:17 28,2 C 30 % 1011,1 hPa 0,0 l/m 0,0 km/h (0 Bft) O-NO 74 0 min 0,000 mm 0,0 UV-I 9 W/m 9,0 C 28,2 C 0,0 km/h (0 Bft) 0,00 %
10.08.2015 20:22 27,9 C 31 % 1010,9 hPa 0,0 l/m 0,4 km/h (0 Bft) SO 128 0 min 0,000 mm 0,0 UV-I 3 W/m 9,2 C 27,9 C 4,0 km/h (1 Bft) 0,00 %
10.08.2015 20:27 27,6 C 32 % 1011,3 hPa 0,0 l/m 0,7 km/h (0 Bft) O-SO 103 0 min 0,000 mm 0,0 UV-I 0 W/m 9,4 C 27,6 C 4,0 km/h (1 Bft) 0,00 %
10.08.2015 20:32 27,3 C 32 % 1011,1 hPa 0,0 l/m 0,0 km/h (0 Bft) O-SO 106 0 min 0,000 mm 0,0 UV-I 0 W/m 9,1 C 27,3 C 0,0 km/h (0 Bft) 0,00 %
10.08.2015 20:37 27,0 C 29 % 1011,1 hPa 0,0 l/m 0,4 km/h (0 Bft) O 80 0 min 0,000 mm 0,0 UV-I 0 W/m 7,4 C 27,0 C 4,0 km/h (1 Bft) 0,00 %
10.08.2015 20:42 26,8 C 30 % 1011,5 hPa 0,0 l/m 0,0 km/h (0 Bft) O 99 0 min 0,000 mm 0,0 UV-I 0 W/m 7,8 C 26,8 C 0,0 km/h (0 Bft) 0,00 %
10.08.2015 20:47 26,5 C 30 % 1011,4 hPa 0,0 l/m 0,0 km/h (0 Bft) O 93 0 min 0,000 mm 0,0 UV-I 0 W/m 7,5 C 26,5 C 0,0 km/h (0 Bft) 0,00 %
10.08.2015 20:52 26,3 C 30 % 1011,6 hPa 0,0 l/m 0,0 km/h (0 Bft) O 81 0 min 0,000 mm 0,0 UV-I 0 W/m 7,3 C 26,3 C 0,0 km/h (0 Bft) 0,00 %
10.08.2015 20:57 26,2 C 30 % 1011,8 hPa 0,0 l/m 0,0 km/h (0 Bft) O-SO 104 0 min 0,000 mm 0,0 UV-I 0 W/m 7,2 C 26,2 C 0,0 km/h (0 Bft) 0,00 %
10.08.2015 21:02 26,1 C 31 % 1011,8 hPa 0,0 l/m 0,0 km/h (0 Bft) NO 45 0 min 0,000 mm 0,0 UV-I 0 W/m 7,6 C 26,1 C 0,0 km/h (0 Bft) 0,00 %
10.08.2015 21:07 25,9 C 32 % 1011,9 hPa 0,0 l/m 0,4 km/h (0 Bft) O-NO 66 0 min 0,000 mm 0,0 UV-I 0 W/m 7,9 C 25,9 C 4,0 km/h (1 Bft) 0,00 %
10.08.2015 21:12 25,8 C 32 % 1011,9 hPa 0,0 l/m 0,0 km/h (0 Bft) NO 46 0 min 0,000 mm 0,0 UV-I 0 W/m 7,8 C 25,8 C 0,0 km/h (0 Bft) 0,00 %
10.08.2015 21:17 25,6 C 34 % 1011,9 hPa 0,0 l/m 0,0 km/h (0 Bft) O-NO 60 0 min 0,000 mm 0,0 UV-I 0 W/m 8,6 C 25,6 C 0,0 km/h (0 Bft) 0,00 %
10.08.2015 21:22 25,4 C 33 % 1011,9 hPa 0,0 l/m 0,0 km/h (0 Bft) NO 36 0 min 0,000 mm 0,0 UV-I 0 W/m 7,9 C 25,4 C 0,0 km/h (0 Bft) 0,00 %
10.08.2015 21:27 25,2 C 33 % 1011,7 hPa 0,0 l/m 2,9 km/h (1 Bft) NO 54 0 min 0,000 mm 0,0 UV-I 0 W/m 7,8 C 25,2 C 4,0 km/h (1 Bft) 0,00 %
10.08.2015 21:35 25,2 C 32 % 1011,8 hPa 0,0 l/m 5,8 km/h (2 Bft) SO 125 0 min 0,000 mm 0,0 UV-I 0 W/m 7,3 C 25,2 C 7,9 km/h (2 Bft) 0,00 %
10.08.2015 21:40 25,2 C 31 % 1011,8 hPa 0,0 l/m 2,2 km/h (1 Bft) SO 146 0 min 0,000 mm 0,0 UV-I 0 W/m 6,9 C 25,2 C 4,0 km/h (1 Bft) 0,00 %
10.08.2015 21:45 25,2 C 32 % 1011,8 hPa 0,0 l/m 0,0 km/h (0 Bft) NO 46 0 min 0,000 mm 0,0 UV-I 0 W/m 7,3 C 25,2 C 0,0 km/h (0 Bft) 0,00 %
10.08.2015 21:50 25,1 C 32 % 1011,9 hPa 0,0 l/m 2,2 km/h (1 Bft) O-SO 105 0 min 0,000 mm 0,0 UV-I 0 W/m 7,2 C 25,1 C 7,9 km/h (2 Bft) 0,00 %
10.08.2015 21:55 25,0 C 34 % 1011,9 hPa 0,0 l/m 0,7 km/h (0 Bft) NO 54 0 min 0,000 mm 0,0 UV-I 0 W/m 8,0 C 25,0 C 4,0 km/h (1 Bft) 0,00 %
10.08.2015 22:00 24,9 C 34 % 1011,9 hPa 0,0 l/m 0,0 km/h (0 Bft) NO 46 0 min 0,000 mm 0,0 UV-I 0 W/m 7,9 C 24,9 C 0,0 km/h (0 Bft) 0,00 %
10.08.2015 22:05 24,7 C 34 % 1011,9 hPa 0,0 l/m 4,7 km/h (1 Bft) O-SO 105 0 min 0,000 mm 0,0 UV-I 0 W/m 7,8 C 24,7 C 7,9 km/h (2 Bft) 0,00 %
10.08.2015 22:10 24,6 C 33 % 1011,9 hPa 0,0 l/m 4,7 km/h (1 Bft) O-SO 122 0 min 0,000 mm 0,0 UV-I 0 W/m 7,2 C 24,6 C 7,9 km/h (2 Bft) 0,00 %
10.08.2015 22:15 24,7 C 33 % 1011,9 hPa 0,0 l/m 5,4 km/h (1 Bft) SO 135 0 min 0,000 mm 0,0 UV-I 0 W/m 7,3 C 24,7 C 7,9 km/h (2 Bft) 0,00 %
10.08.2015 22:20 24,8 C 33 % 1011,8 hPa 0,0 l/m 5,8 km/h (2 Bft) O-SO 106 0 min 0,000 mm 0,0 UV-I 0 W/m 7,4 C 24,8 C 7,9 km/h (2 Bft) 0,00 %
10.08.2015 22:25 24,9 C 33 % 1011,7 hPa 0,0 l/m 2,9 km/h (1 Bft) O 94 0 min 0,000 mm 0,0 UV-I 0 W/m 7,5 C 24,9 C 4,0 km/h (1 Bft) 0,00 %
10.08.2015 22:30 24,8 C 33 % 1011,9 hPa 0,0 l/m 0,0 km/h (0 Bft) SO 133 0 min 0,000 mm 0,0 UV-I 0 W/m 7,4 C 24,8 C 0,0 km/h (0 Bft) 0,00 %
10.08.2015 22:35 24,8 C 33 % 1011,9 hPa 0,0 l/m 0,0 km/h (0 Bft) O-NO 68 0 min 0,000 mm 0,0 UV-I 0 W/m 7,4 C 24,8 C 0,0 km/h (0 Bft) 0,00 %
10.08.2015 22:40 24,7 C 33 % 1011,9 hPa 0,0 l/m 0,7 km/h (0 Bft) O-SO 103 0 min 0,000 mm 0,0 UV-I 0 W/m 7,3 C 24,7 C 4,0 km/h (1 Bft) 0,00 %
10.08.2015 22:45 24,6 C 34 % 1011,9 hPa 0,0 l/m 0,0 km/h (0 Bft) O 89 0 min 0,000 mm 0,0 UV-I 0 W/m 7,7 C 24,6 C 0,0 km/h (0 Bft) 0,00 %
10.08.2015 22:50 24,4 C 35 % 1012,1 hPa 0,0 l/m 2,9 km/h (1 Bft) O-SO 115 0 min 0,000 mm 0,0 UV-I 0 W/m 7,9 C 24,4 C 4,0 km/h (1 Bft) 0,00 %
10.08.2015 22:55 24,2 C 36 % 1012,0 hPa 0,0 l/m 0,7 km/h (0 Bft) O-SO 120 0 min 0,000 mm 0,0 UV-I 0 W/m 8,2 C 24,2 C 4,0 km/h (1 Bft) 0,00 %
10.08.2015 23:00 24,0 C 38 % 1011,9 hPa 0,0 l/m 1,8 km/h (1 Bft) O 89 0 min 0,000 mm 0,0 UV-I 0 W/m 8,8 C 24,0 C 4,0 km/h (1 Bft) 0,00 %
10.08.2015 23:05 23,8 C 38 % 1011,9 hPa 0,0 l/m 1,4 km/h (1 Bft) O 98 0 min 0,000 mm 0,0 UV-I 0 W/m 8,6 C 23,8 C 4,0 km/h (1 Bft) 0,00 %
10.08.2015 23:10 23,6 C 38 % 1012,0 hPa 0,0 l/m 0,0 km/h (0 Bft) O-SO 104 0 min 0,000 mm 0,0 UV-I 0 W/m 8,4 C 23,6 C 0,0 km/h (0 Bft) 0,00 %
10.08.2015 23:15 23,6 C 38 % 1012,2 hPa 0,0 l/m 2,9 km/h (1 Bft) SO 131 0 min 0,000 mm 0,0 UV-I 0 W/m 8,4 C 23,6 C 4,0 km/h (1 Bft) 0,00 %
10.08.2015 23:20 23,6 C 38 % 1012,3 hPa 0,0 l/m 0,0 km/h (0 Bft) O 95 0 min 0,000 mm 0,0 UV-I 0 W/m 8,4 C 23,6 C 0,0 km/h (0 Bft) 0,00 %
10.08.2015 23:25 23,6 C 38 % 1012,3 hPa 0,0 l/m 0,0 km/h (0 Bft) O-NO 74 0 min 0,000 mm 0,0 UV-I 0 W/m 8,4 C 23,6 C 0,0 km/h (0 Bft) 0,00 %
10.08.2015 23:30 23,5 C 38 % 1012,5 hPa 0,0 l/m 1,4 km/h (1 Bft) O 80 0 min 0,000 mm 0,0 UV-I 0 W/m 8,4 C 23,5 C 4,0 km/h (1 Bft) 0,00 %
10.08.2015 23:35 23,5 C 38 % 1012,5 hPa 0,0 l/m 0,0 km/h (0 Bft) NO 42 0 min 0,000 mm 0,0 UV-I 0 W/m 8,4 C 23,5 C 0,0 km/h (0 Bft) 0,00 %
10.08.2015 23:40 23,4 C 39 % 1012,4 hPa 0,0 l/m 0,0 km/h (0 Bft) O-NO 70 0 min 0,000 mm 0,0 UV-I 0 W/m 8,6 C 23,4 C 0,0 km/h (0 Bft) 0,00 %
10.08.2015 23:45 23,4 C 38 % 1012,5 hPa 0,0 l/m 0,4 km/h (0 Bft) NO 48 0 min 0,000 mm 0,0 UV-I 0 W/m 8,3 C 23,4 C 4,0 km/h (1 Bft) 0,00 %
10.08.2015 23:50 23,4 C 39 % 1012,6 hPa 0,0 l/m 0,0 km/h (0 Bft) NO 44 0 min 0,000 mm 0,0 UV-I 0 W/m 8,6 C 23,4 C 0,0 km/h (0 Bft) 0,00 %
10.08.2015 23:55 23,3 C 40 % 1012,5 hPa 0,0 l/m 1,4 km/h (1 Bft) O 96 0 min 0,000 mm 0,0 UV-I 0 W/m 8,9 C 23,3 C 4,0 km/h (1 Bft) 0,00 %
_ Min-Zeit 05:11 15:27 18:57 - 00:01 - - - - - - 15:57 05:11 00:01 00:01
Minimum _ 17,5 C 13 % 1010,8 hPa - 0,0 km/h (0 Bft) - - - - - - 0,9 C 17,5 C 0,0 km/h (0 Bft) 0,00 %
_ Max-Zeit 15:02 06:06 08:16 00:01 17:07 - - 13:37 00:01 12:46 14:57 08:56 15:02 12:41 00:01
Maximum _ 33,3 C 85 % 1015,0 hPa 0,0 l/m 12,2 km/h
O-SO (2 Bft)
- - 6 min 0,000 mm 5,0 UV-I 925 W/m 17,1 C 33,3 C 15,8 km/h
SO (3 Bft)
0,00 %
Durchschnitt _ 26,6 C 42 % 1013,0 hPa #0,0 l/m 1,5 km/h (1 Bft) O-SO - #14:11 h #0,000 mm 2,3 UV-I 566 W/m 10,7 C 26,6 C 2,8 km/h (1 Bft) 0,00 %